contact:dominique.lefevre@mio.osupytheas.fr, maurice.libes@osupytheas.fr, didier.mallarino@osupytheas.fr
Project:EMSO http://www.emso-fr.org/EMSO-France
Depth: 2436.0 m
Title:EMSO Ligure Ouest : Data MII capteur MICROCAT
DateTime_Computer,Latitude,Longitude,Temperature,Conductivity,Pressure,DateTime_Instrument
DateTime_Computer,Latitude,Longitude,degC,S m-1,dbar,DateTime_Instrument
2023-09-05T00:01:18Z,42.805,6.029,13.3056,4.60149,2470.777,2023-9-05T02:03:39Z
2023-09-05T00:04:21Z,42.805,6.029,13.3048,4.60117,2470.763,2023-9-05T02:06:42Z
2023-09-05T00:07:24Z,42.805,6.029,13.3046,4.60132,2470.777,2023-9-05T02:09:45Z
2023-09-05T00:10:27Z,42.805,6.029,13.3036,4.60117,2470.763,2023-9-05T02:12:49Z
2023-09-05T00:13:31Z,42.805,6.029,13.3037,4.60115,2470.73,2023-9-05T02:15:52Z
2023-09-05T00:16:34Z,42.805,6.029,13.3037,4.60132,2470.73,2023-9-05T02:18:55Z
2023-09-05T00:19:37Z,42.805,6.029,13.3039,4.60130,2470.74,2023-9-05T02:21:58Z
2023-09-05T00:22:40Z,42.805,6.029,13.3041,4.60133,2470.754,2023-9-05T02:25:01Z
2023-09-05T00:25:43Z,42.805,6.029,13.3058,4.60142,2470.74,2023-9-05T02:28:04Z
2023-09-05T00:28:46Z,42.805,6.029,13.3047,4.60151,2470.787,2023-9-05T02:31:07Z
2023-09-05T00:31:49Z,42.805,6.029,13.3039,4.60167,2470.74,2023-9-05T02:34:10Z
2023-09-05T00:34:52Z,42.805,6.029,13.3041,4.60127,2470.754,2023-9-05T02:37:13Z
2023-09-05T00:37:55Z,42.805,6.029,13.3046,4.60117,2470.74,2023-9-05T02:40:16Z
2023-09-05T00:40:58Z,42.805,6.029,13.3041,4.60114,2470.777,2023-9-05T02:43:19Z
2023-09-05T00:44:01Z,42.805,6.029,13.3049,4.60147,2470.74,2023-9-05T02:46:22Z
2023-09-05T00:47:04Z,42.805,6.029,13.3036,4.60124,2470.717,2023-9-05T02:49:25Z
2023-09-05T00:50:07Z,42.805,6.029,13.3050,4.60127,2470.754,2023-9-05T02:52:29Z
2023-09-05T00:53:10Z,42.805,6.029,13.3044,4.60129,2470.726,2023-9-05T02:55:32Z
2023-09-05T00:56:14Z,42.805,6.029,13.3036,4.60125,2470.777,2023-9-05T02:58:35Z
2023-09-05T00:59:17Z,42.805,6.029,13.3043,4.60114,2470.74,2023-9-05T03:01:38Z
2023-09-05T01:02:20Z,42.805,6.029,13.3036,4.60118,2470.754,2023-9-05T03:04:41Z
2023-09-05T01:05:23Z,42.805,6.029,13.3043,4.60135,2470.703,2023-9-05T03:07:44Z
2023-09-05T01:08:26Z,42.805,6.029,13.3055,4.60141,2470.74,2023-9-05T03:10:47Z
2023-09-05T01:11:29Z,42.805,6.029,13.3052,4.60157,2470.693,2023-9-05T03:13:50Z
2023-09-05T01:14:32Z,42.805,6.029,13.3054,4.60151,2470.717,2023-9-05T03:16:53Z
2023-09-05T01:17:35Z,42.805,6.029,13.3036,4.60123,2470.717,2023-9-05T03:19:56Z
2023-09-05T01:20:38Z,42.805,6.029,13.3041,4.60127,2470.74,2023-9-05T03:22:59Z
2023-09-05T01:23:41Z,42.805,6.029,13.3052,4.60143,2470.717,2023-9-05T03:26:02Z
2023-09-05T01:26:44Z,42.805,6.029,13.3053,4.60134,2470.707,2023-9-05T03:29:05Z
2023-09-05T01:29:47Z,42.805,6.029,13.3042,4.60122,2470.73,2023-9-05T03:32:08Z
2023-09-05T01:32:50Z,42.805,6.029,13.3051,4.60141,2470.717,2023-9-05T03:35:12Z
2023-09-05T01:35:54Z,42.805,6.029,13.3062,4.60159,2470.707,2023-9-05T03:38:15Z
2023-09-05T01:38:57Z,42.805,6.029,13.3051,4.60139,2470.707,2023-9-05T03:41:18Z
2023-09-05T01:42:00Z,42.805,6.029,13.3063,4.60144,2470.717,2023-9-05T03:44:21Z
2023-09-05T01:45:03Z,42.805,6.029,13.3052,4.60155,2470.717,2023-9-05T03:47:24Z
2023-09-05T01:48:06Z,42.805,6.029,13.3058,4.60142,2470.707,2023-9-05T03:50:27Z
2023-09-05T01:51:09Z,42.805,6.029,13.3062,4.60125,2470.73,2023-9-05T03:53:30Z
2023-09-05T01:54:12Z,42.805,6.029,13.3071,4.60152,2470.73,2023-9-05T03:56:33Z
2023-09-05T01:57:15Z,42.805,6.029,13.3056,4.60146,2470.74,2023-9-05T03:59:36Z
2023-09-05T02:00:18Z,42.805,6.029,13.3056,4.60158,2470.703,2023-9-05T04:02:39Z
2023-09-05T02:03:21Z,42.805,6.029,13.3041,4.60139,2470.693,2023-9-05T04:05:42Z
2023-09-05T02:06:24Z,42.805,6.029,13.3054,4.60140,2470.67,2023-9-05T04:08:45Z
2023-09-05T02:09:27Z,42.805,6.029,13.3063,4.60156,2470.684,2023-9-05T04:11:48Z
2023-09-05T02:12:30Z,42.805,6.029,13.3066,4.60167,2470.693,2023-9-05T04:14:52Z
2023-09-05T02:15:34Z,42.805,6.029,13.3056,4.60155,2470.684,2023-9-05T04:17:55Z
2023-09-05T02:18:37Z,42.805,6.029,13.3051,4.60158,2470.717,2023-9-05T04:20:58Z
2023-09-05T02:21:40Z,42.805,6.029,13.3056,4.60155,2470.707,2023-9-05T04:24:01Z
2023-09-05T02:24:43Z,42.805,6.029,13.3058,4.60173,2470.646,2023-9-05T04:27:04Z
2023-09-05T02:27:46Z,42.805,6.029,13.3061,4.60168,2470.656,2023-9-05T04:30:07Z
2023-09-05T02:30:49Z,42.805,6.029,13.3039,4.60151,2470.646,2023-9-05T04:33:10Z
2023-09-05T02:33:52Z,42.805,6.029,13.3062,4.60149,2470.684,2023-9-05T04:36:13Z
2023-09-05T02:36:55Z,42.805,6.029,13.3058,4.60172,2470.646,2023-9-05T04:39:16Z
2023-09-05T02:39:58Z,42.805,6.029,13.3067,4.60162,2470.707,2023-9-05T04:42:19Z
2023-09-05T02:43:01Z,42.805,6.029,13.3056,4.60160,2470.646,2023-9-05T04:45:22Z
2023-09-05T02:46:04Z,42.805,6.029,13.3063,4.60155,2470.646,2023-9-05T04:48:25Z
2023-09-05T02:49:07Z,42.805,6.029,13.3054,4.60162,2470.707,2023-9-05T04:51:29Z
2023-09-05T02:52:10Z,42.805,6.029,13.3054,4.60162,2470.684,2023-9-05T04:54:32Z
2023-09-05T02:55:14Z,42.805,6.029,13.3062,4.60122,2470.67,2023-9-05T04:57:35Z
2023-09-05T02:58:17Z,42.805,6.029,13.3070,4.60138,2470.67,2023-9-05T05:00:38Z
2023-09-05T03:01:20Z,42.805,6.029,13.3058,4.60160,2470.646,2023-9-05T05:03:41Z
2023-09-05T03:04:23Z,42.805,6.029,13.3055,4.60169,2470.661,2023-9-05T05:06:44Z
2023-09-05T03:07:26Z,42.805,6.029,13.3047,4.60167,2470.646,2023-9-05T05:09:47Z
2023-09-05T03:10:29Z,42.805,6.029,13.3055,4.60152,2470.661,2023-9-05T05:12:50Z
2023-09-05T03:13:32Z,42.805,6.029,13.3048,4.60157,2470.624,2023-9-05T05:15:53Z
2023-09-05T03:16:35Z,42.805,6.029,13.3064,4.60170,2470.684,2023-9-05T05:18:56Z
2023-09-05T03:19:38Z,42.805,6.029,13.3092,4.60203,2470.67,2023-9-05T05:21:59Z
2023-09-05T03:22:41Z,42.805,6.029,13.3049,4.60185,2470.646,2023-9-05T05:25:02Z
2023-09-05T03:25:44Z,42.805,6.029,13.3055,4.60182,2470.661,2023-9-05T05:28:05Z
2023-09-05T03:28:47Z,42.805,6.029,13.3051,4.60163,2470.646,2023-9-05T05:31:08Z
2023-09-05T03:31:50Z,42.805,6.029,13.3067,4.60155,2470.646,2023-9-05T05:34:12Z
2023-09-05T03:34:54Z,42.805,6.029,13.3053,4.60144,2470.67,2023-9-05T05:37:15Z
2023-09-05T03:37:57Z,42.805,6.029,13.3081,4.60174,2470.684,2023-9-05T05:40:18Z
2023-09-05T03:41:00Z,42.805,6.029,13.3051,4.60146,2470.646,2023-9-05T05:43:21Z
2023-09-05T03:44:03Z,42.805,6.029,13.3064,4.60156,2470.646,2023-9-05T05:46:24Z
2023-09-05T03:47:06Z,42.805,6.029,13.3067,4.60172,2470.646,2023-9-05T05:49:27Z
2023-09-05T03:50:09Z,42.805,6.029,13.3064,4.60156,2470.67,2023-9-05T05:52:30Z
2023-09-05T03:53:12Z,42.805,6.029,13.3049,4.60143,2470.67,2023-9-05T05:55:33Z
2023-09-05T03:56:15Z,42.805,6.029,13.3055,4.60119,2470.637,2023-9-05T05:58:36Z
2023-09-05T03:59:18Z,42.805,6.029,13.3076,4.60125,2470.624,2023-9-05T06:01:39Z
2023-09-05T04:02:21Z,42.805,6.029,13.3067,4.60126,2470.637,2023-9-05T06:04:42Z
2023-09-05T04:05:24Z,42.805,6.029,13.3064,4.60117,2470.637,2023-9-05T06:07:45Z
2023-09-05T04:08:27Z,42.805,6.029,13.3067,4.60126,2470.646,2023-9-05T06:10:48Z
2023-09-05T04:11:30Z,42.805,6.029,13.3063,4.60148,2470.646,2023-9-05T06:13:52Z
2023-09-05T04:14:34Z,42.805,6.029,13.3060,4.60139,2470.661,2023-9-05T06:16:55Z
2023-09-05T04:17:37Z,42.805,6.029,13.3065,4.60139,2470.646,2023-9-05T06:19:58Z
2023-09-05T04:20:40Z,42.805,6.029,13.3068,4.60112,2470.646,2023-9-05T06:23:01Z
2023-09-05T04:23:43Z,42.805,6.029,13.3060,4.60109,2470.646,2023-9-05T06:26:04Z
2023-09-05T04:26:46Z,42.805,6.029,13.3065,4.60126,2470.67,2023-9-05T06:29:07Z
2023-09-05T04:29:49Z,42.805,6.029,13.3062,4.60123,2470.624,2023-9-05T06:32:10Z
2023-09-05T04:32:52Z,42.805,6.029,13.3059,4.60107,2470.624,2023-9-05T06:35:14Z
2023-09-05T04:35:55Z,42.805,6.029,13.3048,4.60125,2470.637,2023-9-05T06:38:17Z
2023-09-05T04:38:59Z,42.805,6.029,13.3046,4.60125,2470.624,2023-9-05T06:41:20Z
2023-09-05T04:42:02Z,42.805,6.029,13.3063,4.60153,2470.624,2023-9-05T06:44:23Z
2023-09-05T04:45:05Z,42.805,6.029,13.3063,4.60136,2470.624,2023-9-05T06:47:26Z
2023-09-05T04:48:08Z,42.805,6.029,13.3043,4.60122,2470.661,2023-9-05T06:50:29Z
2023-09-05T04:51:11Z,42.805,6.029,13.3064,4.60110,2470.646,2023-9-05T06:53:32Z
2023-09-05T04:54:14Z,42.805,6.029,13.3050,4.60134,2470.624,2023-9-05T06:56:35Z
2023-09-05T04:57:17Z,42.805,6.029,13.3051,4.60137,2470.637,2023-9-05T06:59:38Z
2023-09-05T05:00:20Z,42.805,6.029,13.3051,4.60141,2470.637,2023-9-05T07:02:41Z
2023-09-05T05:03:23Z,42.805,6.029,13.3072,4.60125,2470.624,2023-9-05T07:05:44Z
2023-09-05T05:06:26Z,42.805,6.029,13.3062,4.60127,2470.614,2023-9-05T07:08:47Z
2023-09-05T05:09:29Z,42.805,6.029,13.3058,4.60127,2470.624,2023-9-05T07:11:50Z
2023-09-05T05:12:32Z,42.805,6.029,13.3074,4.60137,2470.637,2023-9-05T07:14:54Z
2023-09-05T05:15:36Z,42.805,6.029,13.3052,4.60121,2470.624,2023-9-05T07:17:57Z
2023-09-05T05:18:39Z,42.805,6.029,13.3047,4.60117,2470.637,2023-9-05T07:21:00Z
2023-09-05T05:21:42Z,42.805,6.029,13.3080,4.60127,2470.6,2023-9-05T07:24:03Z
2023-09-05T05:24:45Z,42.805,6.029,13.3067,4.60125,2470.637,2023-9-05T07:27:06Z
2023-09-05T05:27:48Z,42.805,6.029,13.3066,4.60132,2470.624,2023-9-05T07:30:09Z
2023-09-05T05:30:51Z,42.805,6.029,13.3062,4.60120,2470.624,2023-9-05T07:33:12Z
2023-09-05T05:33:54Z,42.805,6.029,13.3063,4.60116,2470.614,2023-9-05T07:36:15Z
2023-09-05T05:36:57Z,42.805,6.029,13.3059,4.60122,2470.624,2023-9-05T07:39:18Z
2023-09-05T05:40:00Z,42.805,6.029,13.3057,4.60114,2470.624,2023-9-05T07:42:21Z
2023-09-05T05:43:03Z,42.805,6.029,13.3070,4.60146,2470.637,2023-9-05T07:45:24Z
2023-09-05T05:46:06Z,42.805,6.029,13.3095,4.60124,2470.614,2023-9-05T07:48:27Z
2023-09-05T05:49:09Z,42.805,6.029,13.3065,4.60123,2470.614,2023-9-05T07:51:30Z
2023-09-05T05:52:12Z,42.805,6.029,13.3059,4.60134,2470.624,2023-9-05T07:54:33Z
2023-09-05T05:55:15Z,42.805,6.029,13.3041,4.60135,2470.624,2023-9-05T07:57:37Z
2023-09-05T05:58:19Z,42.805,6.029,13.3056,4.60135,2470.624,2023-9-05T08:00:40Z
2023-09-05T06:01:22Z,42.805,6.029,13.3055,4.60132,2470.6,2023-9-05T08:03:43Z
2023-09-05T06:04:25Z,42.805,6.029,13.3058,4.60125,2470.661,2023-9-05T08:06:46Z
2023-09-05T06:07:28Z,42.805,6.029,13.3072,4.60122,2470.661,2023-9-05T08:09:49Z
2023-09-05T06:10:31Z,42.805,6.029,13.3060,4.60115,2470.624,2023-9-05T08:12:52Z
2023-09-05T06:13:34Z,42.805,6.029,13.3061,4.60108,2470.684,2023-9-05T08:15:55Z
2023-09-05T06:16:37Z,42.805,6.029,13.3071,4.60114,2470.6,2023-9-05T08:18:58Z
2023-09-05T06:19:40Z,42.805,6.029,13.3056,4.60117,2470.637,2023-9-05T08:22:01Z
2023-09-05T06:22:43Z,42.805,6.029,13.3060,4.60131,2470.637,2023-9-05T08:25:04Z
2023-09-05T06:25:46Z,42.805,6.029,13.3056,4.60125,2470.637,2023-9-05T08:28:07Z
2023-09-05T06:28:49Z,42.805,6.029,13.3059,4.60137,2470.637,2023-9-05T08:31:10Z
2023-09-05T06:31:52Z,42.805,6.029,13.3058,4.60136,2470.661,2023-9-05T08:34:13Z
2023-09-05T06:34:55Z,42.805,6.029,13.3067,4.60129,2470.646,2023-9-05T08:37:16Z
2023-09-05T06:37:58Z,42.805,6.029,13.3073,4.60138,2470.624,2023-9-05T08:40:20Z
2023-09-05T06:41:02Z,42.805,6.029,13.3083,4.60122,2470.624,2023-9-05T08:43:23Z
2023-09-05T06:44:05Z,42.805,6.029,13.3078,4.60133,2470.646,2023-9-05T08:46:26Z
2023-09-05T06:47:08Z,42.805,6.029,13.3064,4.60160,2470.661,2023-9-05T08:49:29Z
2023-09-05T06:50:11Z,42.805,6.029,13.3066,4.60144,2470.646,2023-9-05T08:52:32Z
2023-09-05T06:53:14Z,42.805,6.029,13.3087,4.60142,2470.646,2023-9-05T08:55:35Z
2023-09-05T06:56:17Z,42.805,6.029,13.3066,4.60145,2470.646,2023-9-05T08:58:38Z
2023-09-05T06:59:20Z,42.805,6.029,13.3070,4.60173,2470.637,2023-9-05T09:01:41Z
2023-09-05T07:02:23Z,42.805,6.029,13.3065,4.60128,2470.67,2023-9-05T09:04:44Z
2023-09-05T07:05:26Z,42.805,6.029,13.3096,4.60123,2470.684,2023-9-05T09:07:47Z
2023-09-05T07:08:29Z,42.805,6.029,13.3077,4.60137,2470.67,2023-9-05T09:10:50Z
2023-09-05T07:11:32Z,42.805,6.029,13.3079,4.60129,2470.684,2023-9-05T09:13:53Z
2023-09-05T07:14:35Z,42.805,6.029,13.3089,4.60141,2470.661,2023-9-05T09:16:57Z
2023-09-05T07:17:38Z,42.805,6.029,13.3083,4.60130,2470.67,2023-9-05T09:20:00Z
2023-09-05T07:20:42Z,42.805,6.029,13.3095,4.60135,2470.684,2023-9-05T09:23:03Z
2023-09-05T07:23:45Z,42.805,6.029,13.3087,4.60120,2470.646,2023-9-05T09:26:06Z
2023-09-05T07:26:48Z,42.805,6.029,13.3085,4.60135,2470.67,2023-9-05T09:29:09Z
2023-09-05T07:29:51Z,42.805,6.029,13.3076,4.60127,2470.67,2023-9-05T09:32:12Z
2023-09-05T07:32:54Z,42.805,6.029,13.3069,4.60135,2470.73,2023-9-05T09:35:15Z
2023-09-05T07:35:57Z,42.805,6.029,13.3063,4.60132,2470.684,2023-9-05T09:38:18Z
2023-09-05T07:39:00Z,42.805,6.029,13.3106,4.60130,2470.67,2023-9-05T09:41:21Z
2023-09-05T07:42:03Z,42.805,6.029,13.3083,4.60144,2470.684,2023-9-05T09:44:24Z
2023-09-05T07:45:06Z,42.805,6.029,13.3067,4.60139,2470.693,2023-9-05T09:47:27Z
2023-09-05T07:48:09Z,42.805,6.029,13.3086,4.60123,2470.684,2023-9-05T09:50:30Z
2023-09-05T07:51:12Z,42.805,6.029,13.3085,4.60133,2470.693,2023-9-05T09:53:33Z
2023-09-05T07:54:15Z,42.805,6.029,13.3086,4.60132,2470.693,2023-9-05T09:56:36Z
2023-09-05T07:57:18Z,42.805,6.029,13.3104,4.60131,2470.67,2023-9-05T09:59:40Z
2023-09-05T08:00:22Z,42.805,6.029,13.3070,4.60144,2470.73,2023-9-05T10:02:43Z
2023-09-05T08:03:25Z,42.805,6.029,13.3089,4.60132,2470.717,2023-9-05T10:05:46Z
2023-09-05T08:06:28Z,42.805,6.029,13.3098,4.60132,2470.684,2023-9-05T10:08:49Z
2023-09-05T08:09:31Z,42.805,6.029,13.3098,4.60146,2470.693,2023-9-05T10:11:52Z
2023-09-05T08:12:34Z,42.805,6.029,13.3109,4.60137,2470.73,2023-9-05T10:14:55Z
2023-09-05T08:15:37Z,42.805,6.029,13.3093,4.60135,2470.707,2023-9-05T10:17:58Z
2023-09-05T08:18:40Z,42.805,6.029,13.3113,4.60168,2470.73,2023-9-05T10:21:01Z
2023-09-05T08:21:43Z,42.805,6.029,13.3099,4.60145,2470.73,2023-9-05T10:24:04Z
2023-09-05T08:24:46Z,42.805,6.029,13.3063,4.60136,2470.693,2023-9-05T10:27:07Z
2023-09-05T08:27:49Z,42.805,6.029,13.3085,4.60135,2470.74,2023-9-05T10:30:10Z
2023-09-05T08:30:51Z,42.805,6.029,13.3074,4.60161,2470.74,2023-9-05T10:33:12Z
2023-09-05T08:33:54Z,42.805,6.029,13.3091,4.60146,2470.717,2023-9-05T10:36:15Z
2023-09-05T08:36:57Z,42.805,6.029,13.3107,4.60157,2470.73,2023-9-05T10:39:18Z
2023-09-05T08:40:00Z,42.805,6.029,13.3112,4.60162,2470.73,2023-9-05T10:42:21Z
2023-09-05T08:43:03Z,42.805,6.029,13.3118,4.60127,2470.754,2023-9-05T10:45:24Z
2023-09-05T08:46:06Z,42.805,6.029,13.3113,4.60155,2470.754,2023-9-05T10:48:27Z
2023-09-05T08:49:09Z,42.805,6.029,13.3123,4.60148,2470.754,2023-9-05T10:51:30Z
2023-09-05T08:52:12Z,42.805,6.029,13.3113,4.60153,2470.8,2023-9-05T10:54:34Z
2023-09-05T08:55:15Z,42.805,6.029,13.3099,4.60147,2470.74,2023-9-05T10:57:37Z
2023-09-05T08:58:19Z,42.805,6.029,13.3102,4.60125,2470.754,2023-9-05T11:00:40Z
2023-09-05T09:01:22Z,42.805,6.029,13.3118,4.60142,2470.8,2023-9-05T11:03:43Z
2023-09-05T09:04:25Z,42.805,6.029,13.3104,4.60128,2470.777,2023-9-05T11:06:46Z
2023-09-05T09:07:28Z,42.805,6.029,13.3103,4.60155,2470.717,2023-9-05T11:09:49Z
2023-09-05T09:10:31Z,42.805,6.029,13.3101,4.60173,2470.763,2023-9-05T11:12:52Z
2023-09-05T09:13:34Z,42.805,6.029,13.3105,4.60190,2470.777,2023-9-05T11:15:55Z
2023-09-05T09:16:37Z,42.805,6.029,13.3101,4.60174,2470.74,2023-9-05T11:18:58Z
2023-09-05T09:19:40Z,42.805,6.029,13.3111,4.60162,2470.777,2023-9-05T11:22:01Z
2023-09-05T09:22:43Z,42.805,6.029,13.3104,4.60144,2470.763,2023-9-05T11:25:04Z
2023-09-05T09:25:46Z,42.805,6.029,13.3092,4.60138,2470.763,2023-9-05T11:28:07Z
2023-09-05T09:28:49Z,42.805,6.029,13.3051,4.60142,2470.754,2023-9-05T11:31:10Z
2023-09-05T09:31:52Z,42.805,6.029,13.3054,4.60125,2470.763,2023-9-05T11:34:14Z
2023-09-05T09:34:55Z,42.805,6.029,13.3064,4.60112,2470.763,2023-9-05T11:37:17Z
2023-09-05T09:37:59Z,42.805,6.029,13.3062,4.60113,2470.754,2023-9-05T11:40:20Z
2023-09-05T09:41:02Z,42.805,6.029,13.3067,4.60120,2470.754,2023-9-05T11:43:23Z
2023-09-05T09:44:05Z,42.805,6.029,13.3065,4.60115,2470.74,2023-9-05T11:46:26Z
2023-09-05T09:47:08Z,42.805,6.029,13.3070,4.60124,2470.74,2023-9-05T11:49:29Z
2023-09-05T09:50:11Z,42.805,6.029,13.3075,4.60110,2470.763,2023-9-05T11:52:32Z
2023-09-05T09:53:14Z,42.805,6.029,13.3085,4.60116,2470.763,2023-9-05T11:55:35Z
2023-09-05T09:56:17Z,42.805,6.029,13.3096,4.60128,2470.754,2023-9-05T11:58:38Z
2023-09-05T09:59:20Z,42.805,6.029,13.3102,4.60121,2470.777,2023-9-05T12:01:41Z
2023-09-05T10:02:23Z,42.805,6.029,13.3095,4.60126,2470.763,2023-9-05T12:04:44Z
2023-09-05T10:05:26Z,42.805,6.029,13.3090,4.60144,2470.777,2023-9-05T12:07:47Z
2023-09-05T10:08:29Z,42.805,6.029,13.3102,4.60121,2470.777,2023-9-05T12:10:50Z
2023-09-05T10:11:32Z,42.805,6.029,13.3095,4.60152,2470.777,2023-9-05T12:13:54Z
2023-09-05T10:14:35Z,42.805,6.029,13.3093,4.60150,2470.763,2023-9-05T12:16:57Z
2023-09-05T10:17:39Z,42.805,6.029,13.3104,4.60164,2470.777,2023-9-05T12:20:00Z
2023-09-05T10:20:42Z,42.805,6.029,13.3105,4.60154,2470.763,2023-9-05T12:23:03Z
2023-09-05T10:23:45Z,42.805,6.029,13.3109,4.60167,2470.777,2023-9-05T12:26:06Z
2023-09-05T10:26:48Z,42.805,6.029,13.3101,4.60161,2470.777,2023-9-05T12:29:09Z
2023-09-05T10:29:51Z,42.805,6.029,13.3107,4.60192,2470.777,2023-9-05T12:32:12Z
2023-09-05T10:32:54Z,42.805,6.029,13.3109,4.60145,2470.777,2023-9-05T12:35:15Z
2023-09-05T10:35:57Z,42.805,6.029,13.3113,4.60170,2470.754,2023-9-05T12:38:18Z
2023-09-05T10:39:00Z,42.805,6.029,13.3109,4.60157,2470.787,2023-9-05T12:41:21Z
2023-09-05T10:42:03Z,42.805,6.029,13.3078,4.60138,2470.763,2023-9-05T12:44:24Z
2023-09-05T10:45:06Z,42.805,6.029,13.3092,4.60173,2470.824,2023-9-05T12:47:27Z
2023-09-05T10:48:09Z,42.805,6.029,13.3086,4.60190,2470.8,2023-9-05T12:50:31Z
2023-09-05T10:51:12Z,42.805,6.029,13.3070,4.60194,2470.787,2023-9-05T12:53:34Z
2023-09-05T10:54:16Z,42.805,6.029,13.3085,4.60185,2470.754,2023-9-05T12:56:37Z
2023-09-05T10:57:19Z,42.805,6.029,13.3088,4.60166,2470.763,2023-9-05T12:59:40Z
2023-09-05T11:00:22Z,42.805,6.029,13.3067,4.60195,2470.74,2023-9-05T13:02:43Z
2023-09-05T11:03:25Z,42.805,6.029,13.3075,4.60185,2470.81,2023-9-05T13:05:46Z
2023-09-05T11:06:28Z,42.805,6.029,13.3088,4.60185,2470.777,2023-9-05T13:08:49Z
2023-09-05T11:09:31Z,42.805,6.029,13.3090,4.60197,2470.763,2023-9-05T13:11:52Z
2023-09-05T11:12:34Z,42.805,6.029,13.3063,4.60195,2470.763,2023-9-05T13:14:55Z
2023-09-05T11:15:37Z,42.805,6.029,13.3061,4.60205,2470.777,2023-9-05T13:17:58Z
2023-09-05T11:18:40Z,42.805,6.029,13.3061,4.60211,2470.763,2023-9-05T13:21:01Z
2023-09-05T11:21:43Z,42.805,6.029,13.3061,4.60180,2470.777,2023-9-05T13:24:04Z
2023-09-05T11:24:46Z,42.805,6.029,13.3063,4.60173,2470.81,2023-9-05T13:27:07Z
2023-09-05T11:27:49Z,42.805,6.029,13.3053,4.60184,2470.777,2023-9-05T13:30:11Z
2023-09-05T11:30:52Z,42.805,6.029,13.3060,4.60174,2470.74,2023-9-05T13:33:14Z
2023-09-05T11:33:56Z,42.805,6.029,13.3056,4.60200,2470.777,2023-9-05T13:36:17Z
2023-09-05T11:36:59Z,42.805,6.029,13.3058,4.60161,2470.777,2023-9-05T13:39:20Z
2023-09-05T11:40:02Z,42.805,6.029,13.3052,4.60173,2470.73,2023-9-05T13:42:23Z
2023-09-05T11:43:05Z,42.805,6.029,13.3054,4.60190,2470.787,2023-9-05T13:45:26Z
2023-09-05T11:46:08Z,42.805,6.029,13.3066,4.60175,2470.763,2023-9-05T13:48:29Z
2023-09-05T11:49:11Z,42.805,6.029,13.3055,4.60175,2470.787,2023-9-05T13:51:32Z
2023-09-05T11:52:14Z,42.805,6.029,13.3071,4.60164,2470.754,2023-9-05T13:54:35Z
2023-09-05T11:55:17Z,42.805,6.029,13.3077,4.60157,2470.717,2023-9-05T13:57:38Z
2023-09-05T11:58:20Z,42.805,6.029,13.3063,4.60178,2470.754,2023-9-05T14:00:41Z
2023-09-05T12:01:23Z,42.805,6.029,13.3061,4.60193,2470.74,2023-9-05T14:03:44Z
2023-09-05T12:04:26Z,42.805,6.029,13.3054,4.60159,2470.763,2023-9-05T14:06:47Z
2023-09-05T12:07:29Z,42.805,6.029,13.3056,4.60160,2470.754,2023-9-05T14:09:51Z
2023-09-05T12:10:33Z,42.805,6.029,13.3047,4.60192,2470.717,2023-9-05T14:12:54Z
2023-09-05T12:13:36Z,42.805,6.029,13.3061,4.60175,2470.754,2023-9-05T14:15:57Z
2023-09-05T12:16:39Z,42.805,6.029,13.3056,4.60181,2470.73,2023-9-05T14:19:00Z
2023-09-05T12:19:42Z,42.805,6.029,13.3057,4.60176,2470.717,2023-9-05T14:22:03Z
2023-09-05T12:22:45Z,42.805,6.029,13.3048,4.60170,2470.717,2023-9-05T14:25:06Z
2023-09-05T12:25:48Z,42.805,6.029,13.3051,4.60183,2470.693,2023-9-05T14:28:09Z
2023-09-05T12:28:51Z,42.805,6.029,13.3046,4.60156,2470.754,2023-9-05T14:31:12Z
2023-09-05T12:31:54Z,42.805,6.029,13.3056,4.60146,2470.754,2023-9-05T14:34:15Z
2023-09-05T12:34:57Z,42.805,6.029,13.3051,4.60155,2470.74,2023-9-05T14:37:18Z
2023-09-05T12:38:00Z,42.805,6.029,13.3048,4.60169,2470.717,2023-9-05T14:40:21Z
2023-09-05T12:41:03Z,42.805,6.029,13.3061,4.60142,2470.74,2023-9-05T14:43:24Z
2023-09-05T12:44:06Z,42.805,6.029,13.3052,4.60160,2470.74,2023-9-05T14:46:28Z
2023-09-05T12:47:09Z,42.805,6.029,13.3056,4.60163,2470.717,2023-9-05T14:49:31Z
2023-09-05T12:50:13Z,42.805,6.029,13.3055,4.60172,2470.74,2023-9-05T14:52:34Z
2023-09-05T12:53:16Z,42.805,6.029,13.3044,4.60164,2470.74,2023-9-05T14:55:37Z
2023-09-05T12:56:19Z,42.805,6.029,13.3057,4.60170,2470.754,2023-9-05T14:58:40Z
2023-09-05T12:59:22Z,42.805,6.029,13.3048,4.60150,2470.717,2023-9-05T15:01:43Z
2023-09-05T13:02:25Z,42.805,6.029,13.3043,4.60150,2470.74,2023-9-05T15:04:46Z
2023-09-05T13:05:28Z,42.805,6.029,13.3051,4.60160,2470.717,2023-9-05T15:07:49Z
2023-09-05T13:08:31Z,42.805,6.029,13.3051,4.60153,2470.754,2023-9-05T15:10:52Z
2023-09-05T13:11:34Z,42.805,6.029,13.3052,4.60157,2470.717,2023-9-05T15:13:55Z
2023-09-05T13:14:37Z,42.805,6.029,13.3047,4.60155,2470.74,2023-9-05T15:16:58Z
2023-09-05T13:17:40Z,42.805,6.029,13.3046,4.60146,2470.73,2023-9-05T15:20:01Z
2023-09-05T13:20:43Z,42.805,6.029,13.3051,4.60162,2470.73,2023-9-05T15:23:05Z
2023-09-05T13:23:46Z,42.805,6.029,13.3043,4.60157,2470.754,2023-9-05T15:26:08Z
2023-09-05T13:26:50Z,42.805,6.029,13.3043,4.60162,2470.73,2023-9-05T15:29:11Z
2023-09-05T13:29:53Z,42.805,6.029,13.3045,4.60170,2470.707,2023-9-05T15:32:14Z
2023-09-05T13:32:56Z,42.805,6.029,13.3044,4.60146,2470.73,2023-9-05T15:35:17Z
2023-09-05T13:35:59Z,42.805,6.029,13.3055,4.60147,2470.73,2023-9-05T15:38:20Z
2023-09-05T13:39:02Z,42.805,6.029,13.3041,4.60152,2470.74,2023-9-05T15:41:23Z
2023-09-05T13:42:05Z,42.805,6.029,13.3051,4.60152,2470.73,2023-9-05T15:44:26Z
2023-09-05T13:45:08Z,42.805,6.029,13.3050,4.60164,2470.707,2023-9-05T15:47:29Z
2023-09-05T13:48:11Z,42.805,6.029,13.3054,4.60174,2470.707,2023-9-05T15:50:32Z
2023-09-05T13:51:14Z,42.805,6.029,13.3054,4.60142,2470.693,2023-9-05T15:53:35Z
2023-09-05T13:54:17Z,42.805,6.029,13.3051,4.60150,2470.717,2023-9-05T15:56:38Z
2023-09-05T13:57:20Z,42.805,6.029,13.3048,4.60162,2470.717,2023-9-05T15:59:41Z
2023-09-05T14:00:23Z,42.805,6.029,13.3049,4.60164,2470.717,2023-9-05T16:02:45Z
2023-09-05T14:03:27Z,42.805,6.029,13.3048,4.60179,2470.693,2023-9-05T16:05:48Z
2023-09-05T14:06:30Z,42.805,6.029,13.3050,4.60162,2470.67,2023-9-05T16:08:51Z
2023-09-05T14:09:33Z,42.805,6.029,13.3044,4.60178,2470.693,2023-9-05T16:11:54Z
2023-09-05T14:12:36Z,42.805,6.029,13.3059,4.60138,2470.717,2023-9-05T16:14:57Z
2023-09-05T14:15:39Z,42.805,6.029,13.3040,4.60152,2470.707,2023-9-05T16:18:00Z
2023-09-05T14:18:42Z,42.805,6.029,13.3055,4.60161,2470.646,2023-9-05T16:21:03Z
2023-09-05T14:21:45Z,42.805,6.029,13.3043,4.60150,2470.707,2023-9-05T16:24:06Z
2023-09-05T14:24:48Z,42.805,6.029,13.3049,4.60137,2470.707,2023-9-05T16:27:09Z
2023-09-05T14:27:51Z,42.805,6.029,13.3043,4.60134,2470.717,2023-9-05T16:30:12Z
2023-09-05T14:30:55Z,42.805,6.029,13.3055,4.60130,2470.717,2023-9-05T16:33:16Z
2023-09-05T14:33:58Z,42.805,6.029,13.3048,4.60146,2470.707,2023-9-05T16:36:19Z
2023-09-05T14:37:01Z,42.805,6.029,13.3054,4.60142,2470.707,2023-9-05T16:39:22Z
2023-09-05T14:40:04Z,42.805,6.029,13.3050,4.60133,2470.67,2023-9-05T16:42:25Z
2023-09-05T14:43:07Z,42.805,6.029,13.3058,4.60142,2470.707,2023-9-05T16:45:28Z
2023-09-05T14:46:10Z,42.805,6.029,13.3046,4.60150,2470.717,2023-9-05T16:48:32Z
2023-09-05T14:49:13Z,42.805,6.029,13.3051,4.60154,2470.74,2023-9-05T16:51:35Z
2023-09-05T14:52:17Z,42.805,6.029,13.3057,4.60150,2470.684,2023-9-05T16:54:38Z
2023-09-05T14:55:20Z,42.805,6.029,13.3047,4.60157,2470.717,2023-9-05T16:57:41Z
2023-09-05T14:58:23Z,42.805,6.029,13.3054,4.60148,2470.717,2023-9-05T17:00:44Z
2023-09-05T15:01:26Z,42.805,6.029,13.3047,4.60175,2470.73,2023-9-05T17:03:47Z
2023-09-05T15:04:29Z,42.805,6.029,13.3037,4.60130,2470.754,2023-9-05T17:06:50Z
2023-09-05T15:07:32Z,42.805,6.029,13.3045,4.60122,2470.693,2023-9-05T17:09:53Z
2023-09-05T15:10:35Z,42.805,6.029,13.3038,4.60125,2470.684,2023-9-05T17:12:56Z